Starlink 1625

operational
NORAD ID: 46131 Int'l Des: 2020-057 Owner: SPXS Country: US Constellation: starlink
LEOCIRCULARSTARLINK_TYPE

关于 Starlink 1625

正在加载描述...

实时位置

正在加载3D地球...

即将过境

高度历史

Altitude vs Time

uPlot chart will show altitude changes over time

两行轨道根数

1 46131U 20057Q 25304.91668980 .00105240 00000-0 26386-2 0 9999
2 46131 53.0544 152.1802 0001456 98.1894 103.7426 15.39224320 5832
Epoch: Oct 31, 2025 • Age: 22 hours

当前状态

高度 447.9 km
速度 7.65 km/s
星下点 5.72°N, 13.07°W
发射日期 Aug 18, 2020
运行时间 5.2 years
类型 internet

技术详情

分类 Payload
质量 260.00 kg
干质量 248.00 kg
总质量 260.00 kg
长度 0.20 m
直径 2.80 m
跨度 9.00 m
形状 Box + pan
制造商 SPXS
平台类型 Starlink
阶段状态 In Orbit
所有者/国家 SPXS/US

大型星座

Loading constellations...